Flag for U.S.A. Weather past 2 weeks in Spokane, Washington, U.S.A.

Now
98 °F

Sunny.


Feels Like: 94 °F
Forecast: 68 / 88 °F
Wind: 9 mph from Southwest

Location: Felts Field

Current Time: Jul 4, 2015 at 6:09:56 PM

Latest Report: Jul 4, 2015 at 4:53 PM


Visibility: 10 mi

Pressure: 29.62 "Hg (27.82 "Hg at 569m altitude)

Humidity: 16%

Dew point: 44 °F

Location of SpokaneLocation

Historic Weather in Spokane — Graph

°F

Spokane temperature yesterday

Maximum temperature yesterday: 101 °F (at 3:53 PM)
Minimum temperature yesterday: 65 °F (at 5:53 AM)
Average temperature yesterday: 84 °F

Past Weeks' High & Low Weather Summary

 TemperatureHumidityPressure
High107 °F (Jun 28, 3:53 PM)76% (Jun 30, 5:53 AM)30.11 "Hg (Jun 30, 5:53 AM)
Low50 °F (Jun 20, 3:53 AM)12% (Jul 3, 2:53 PM)29.62 "Hg (Jul 4, 4:53 PM)
Average78 °F36%29.91 "Hg
* Reported Jun 19 4:53 PM — Jul 4 4:53 PM, Spokane, Weather by CustomWeather, © 2015

Note: Actual official high and low records may vary slightly from our data, if they occured in-between our weather recording intervals... More about our weather records

Advertising

Spokane weather history for previous 24 hours

 ConditionsComfort  
Time TempWeatherWind HumidityBarometerVisibility
4:53 PM
Sat, Jul 4
98 °FSunny.9 mph16%29.62 "Hg10 mi
3:53 PM98 °FSunny.10 mph16%29.65 "Hg10 mi
2:53 PM98 °FSunny.3 mph16%29.67 "Hg10 mi
1:53 PM95 °FSunny.No wind19%29.70 "Hg10 mi
12:53 PM94 °FSunny.3 mph21%29.71 "Hg10 mi
11:53 AM90 °FSunny.6 mph24%29.73 "Hg10 mi
10:53 AM87 °FSunny.N/A28%29.75 "Hg10 mi
9:53 AM84 °FSunny.8 mph30%29.76 "Hg10 mi
8:53 AM82 °FSunny.3 mph32%29.76 "Hg10 mi
7:53 AM78 °FSunny.5 mph35%29.76 "Hg10 mi
6:53 AM75 °FSunny.No wind37%29.76 "Hg10 mi
5:53 AM67 °FClear.No wind51%29.75 "Hg10 mi
4:53 AM66 °FClear.5 mph49%29.74 "Hg10 mi
3:53 AM66 °FClear.6 mph52%29.72 "Hg10 mi
2:53 AM68 °FClear.5 mph42%29.72 "Hg10 mi
1:53 AM69 °FClear.5 mph42%29.72 "Hg10 mi
12:53 AM72 °FClear.3 mph37%29.71 "Hg10 mi
11:53 PM
Fri, Jul 3
72 °FClear.3 mph44%29.71 "Hg10 mi
10:53 PM77 °FClear.No wind30%29.71 "Hg10 mi
9:53 PM82 °FClear.No wind22%29.70 "Hg10 mi
8:53 PM90 °FSunny.3 mph18%29.69 "Hg10 mi
7:53 PM96 °FSunny.7 mph15%29.68 "Hg10 mi
6:53 PM98 °FSunny.8 mph14%29.68 "Hg10 mi
Weather by CustomWeather, © 2015

See weather overviewHow to use our weather pages